Location: ?p Thanh B�nh
(16.5833°N, 107.5333°E)
Time: 07:36:20
(UTC+00:00)

Sakura Rocket - Pass Details

Date: 29 October 2020
Orbit: 476 x 1743 km, 28.7° (Epoch: 02 December)

Event Time Altitude Azimuth Distance (km) Brightness Sun altitude
Exits shadow 21:14:54 28° 244° (WSW) 2,427 5.6 -22.4°
Maximum altitude 21:20:22 90° 342° (NNW) 1,248 4.5 -21.1°
Drops below altitude 10° 21:27:17 10° 65° (ENE) 2,748 7.2 -19.5°
Sets 21:29:34 0° 65° (ENE) 3,529 7.9 -18.9°
